Location: Zengebe
(1.4833°N, 32.5167°E)
Time: 23:09:31
(UTC+00:00)

Cosmos 2237 Rocket - Pass Details

Date: 07 June 2020
Orbit: 833 x 851 km, 71.0° (Epoch: 10 July)

Event Time Altitude Azimuth Distance (km) Brightness Sun altitude
Exits shadow 01:52:28 33° 319° (NW) 1,384 3.1 -26.0°
Drops below altitude 10° 01:56:11 10° 353° (N) 2,451 4.8 -25.2°
Sets 01:58:47 0° 1° (N) 3,386 5.7 -24.6°
